COOK73 UUYY-EDTM

Flight info

Callsign COOK73
Flight time N/A
Altitude 36000
Route ODRIG1F ODRIG L870 RANVA/N0441F360 L870 RESMO DCT SOKVA N619 RONUS DCT BEZMI P31 GOVEN DCT PEROX Z715 ANELA DCT UTABA
Aircraft C25C/M-SDE2E3FGHRWXY/LB1

Departure

Time 2026-04-29 23:44
Airport Syktyvkar Airport (UUYY)

Arrival

Time N/A
Airport Mengen-Hohentengen Airfield (EDTM)
Time Latitude Longitude Altitude Speed Heading
2026-04-29 23:23 61.65635 50.86104 313 ft 0 kts 80°
2026-04-29 23:38 61.65634 50.86095 313 ft 4 kts 79°
2026-04-29 23:38 61.65627 50.86076 313 ft 2 kts
2026-04-29 23:38 61.65616 50.86079 313 ft 2 kts 352°
2026-04-29 23:39 61.65615 50.86079 313 ft 0 kts 352°
2026-04-29 23:40 61.65627 50.86073 313 ft 5 kts 346°
2026-04-29 23:41 61.65677 50.86040 313 ft 8 kts 341°
2026-04-29 23:41 61.65730 50.86001 313 ft 8 kts 340°
2026-04-29 23:41 61.65781 50.85963 313 ft 8 kts 340°
2026-04-29 23:41 61.65823 50.85911 313 ft 7 kts 284°
2026-04-29 23:42 61.65818 50.85871 313 ft 6 kts 245°
2026-04-29 23:42 61.65800 50.85797 313 ft 6 kts 240°
2026-04-29 23:42 61.65780 50.85726 313 ft 6 kts 240°
2026-04-29 23:42 61.65761 50.85653 313 ft 7 kts 242°
2026-04-29 23:43 61.65735 50.85549 313 ft 9 kts 242°
2026-04-29 23:43 61.65708 50.85438 313 ft 8 kts 242°
2026-04-29 23:43 61.65679 50.85360 314 ft 6 kts 223°
2026-04-29 23:43 61.65666 50.85343 314 ft 0 kts 205°
2026-04-29 23:44 61.65544 50.85242 316 ft 49 kts 201°
2026-04-29 23:44 61.64975 50.84762 375 ft 112 kts 201°
2026-04-29 23:44 61.64334 50.84281 1165 ft 95 kts 207°
2026-04-29 23:45 61.63605 50.83278 1283 ft 151 kts 226°
2026-04-29 23:45 61.62971 50.81337 1893 ft 176 kts 251°
2026-04-29 23:45 61.62819 50.78749 2975 ft 177 kts 275°
2026-04-29 23:45 61.63140 50.76255 4029 ft 182 kts 286°
2026-04-29 23:46 61.63514 50.73676 5152 ft 186 kts 286°
2026-04-29 23:46 61.63905 50.71049 6290 ft 190 kts 285°
2026-04-29 23:46 61.64305 50.68364 7368 ft 194 kts 285°
2026-04-29 23:46 61.64703 50.65634 8456 ft 197 kts 285°
2026-04-29 23:47 61.65112 50.62859 9564 ft 200 kts 285°
2026-04-29 23:47 61.65526 50.60040 10615 ft 203 kts 285°
2026-04-29 23:47 61.65944 50.57175 11649 ft 207 kts 285°
2026-04-29 23:47 61.66369 50.54259 12669 ft 210 kts 285°
2026-04-29 23:48 61.66804 50.51292 13665 ft 214 kts 285°
2026-04-29 23:48 61.67241 50.48273 14539 ft 217 kts 285°
2026-04-29 23:48 61.67686 50.45214 15391 ft 220 kts 285°
2026-04-29 23:48 61.68137 50.42114 16250 ft 223 kts 285°
2026-04-29 23:49 61.68591 50.38968 17133 ft 226 kts 285°
2026-04-29 23:49 61.69050 50.35784 18048 ft 229 kts 284°
2026-04-29 23:49 61.69517 50.32558 18874 ft 231 kts 284°
2026-04-29 23:49 61.69985 50.29302 19748 ft 234 kts 284°
2026-04-29 23:50 61.70457 50.26008 20643 ft 236 kts 284°
2026-04-29 23:50 61.70930 50.22721 21485 ft 239 kts 284°
2026-04-29 23:50 61.71899 50.15933 23080 ft 245 kts 283°
2026-04-29 23:51 61.72394 50.12468 23770 ft 248 kts 284°
2026-04-29 23:51 61.72892 50.08955 24347 ft 252 kts 284°
2026-04-29 23:51 61.73399 50.05386 24927 ft 256 kts 284°
2026-04-29 23:51 61.73910 50.01779 25490 ft 260 kts 284°
2026-04-29 23:52 61.74429 49.98094 26054 ft 264 kts 284°
2026-04-29 23:52 61.74957 49.94354 26608 ft 267 kts 284°
2026-04-29 23:52 61.75491 49.90558 27158 ft 271 kts 284°
2026-04-29 23:52 61.76029 49.86718 27701 ft 275 kts 284°
2026-04-29 23:53 61.76576 49.82812 28245 ft 279 kts 284°
2026-04-29 23:53 61.77127 49.78870 28850 ft 280 kts 284°
2026-04-29 23:53 61.77675 49.74930 29481 ft 280 kts 284°
2026-04-29 23:53 61.78226 49.70974 30072 ft 281 kts 284°
2026-04-29 23:54 61.78775 49.67003 30536 ft 282 kts 284°
2026-04-29 23:54 61.79319 49.63072 30979 ft 284 kts 284°
2026-04-29 23:54 61.79876 49.59035 31442 ft 286 kts 284°
2026-04-29 23:54 61.80432 49.54990 31897 ft 287 kts 284°
2026-04-29 23:55 61.80991 49.50919 32351 ft 289 kts 284°
2026-04-29 23:55 61.81553 49.46821 32808 ft 291 kts 284°
2026-04-29 23:55 61.82114 49.42702 33253 ft 292 kts 284°
2026-04-29 23:55 61.82586 49.38517 33680 ft 293 kts 276°
2026-04-29 23:56 61.82712 49.34206 34069 ft 293 kts 267°
2026-04-29 23:56 61.82646 49.29886 34427 ft 294 kts 268°
2026-04-29 23:56 61.82600 49.25556 34789 ft 294 kts 268°
2026-04-29 23:56 61.82553 49.21234 35152 ft 294 kts 268°
2026-04-29 23:57 61.82495 49.16900 35504 ft 294 kts 268°
2026-04-29 23:57 61.82436 49.12568 35803 ft 297 kts 267°
2026-04-29 23:57 61.82378 49.08130 35896 ft 307 kts 267°